Location: Gloden
(48.4833°N, 15.3167°E)
Time: 01:26:15
(UTC+00:00)

ITUPSAT 1 - Pass Details

Date: 11 May 2021
Orbit: 700 x 713 km, 98.6° (Epoch: 24 June)

Event Time Altitude Azimuth Distance (km) Brightness Sun altitude
Rises 20:18:58 0° 357° (N) 3,121 ? -14.9°
Reaches altitude 10° 20:23:15 10° 320° (NW) 2,191 ? -15.3°
Maximum altitude 20:24:14 11° 308° (NW) 2,147 ? -15.4°
Drops below altitude 10° 20:25:14 10° 296° (WNW) 2,186 ? -15.5°
Sets 20:29:30 0° 259° (W) 3,095 ? -15.9°
